User: anonymous   Login
Location: Feydey
(46.3431°N, 7.0106°E)
Time: 18:26:16
(UTC+00:00)
Language:

Cosmos 1025 Rocket - Orbit

View from above orbital plane
View from above orbital plane
View from above satellite
View from above satellite

Ground track
Ground track

The orbit data is extracted from the following two-line orbital elements,

1 10974U 78067B   21262.93192911  .00000106  00000-0  90049-5 0  9991
2 10974  82.4818 135.6112 0016252 223.9675 136.0251 14.87415143317673
Epoch (UTC): 19 September 2021 22:21:58
Eccentricity: 0.0016252
inclination: 82.4818°
perigee height: 594 km
apogee height: 617 km
right ascension of ascending node: 135.6112°
argument of perigee: 223.9675°
revolutions per day: 14.87415143
mean anomaly at epoch: 136.0251°
orbit number at epoch: 31767

The dashed part of the orbit path shows where the satellite is in the earth's shadow,  

DLR